Calgary Springbank, Alberta

9:21 PM MST on February 07, 2016 (GMT -0700)
Springbank

Weather History for CYBW - October, 2013

Change the Weather History Date:

Friday, October 18, 2013

  Actual Average (CYYC) Record (CYYC)
Temperature  
Mean Temperature 40 °F -  
Max Temperature 62 °F 40 °F - (-1)
Min Temperature 19 °F 19 °F - (-1)
Degree Days  
Heating Degree Days 24    
Moisture  
Dew Point 26 °F    
Average Humidity 55    
Maximum Humidity 86    
Minimum Humidity 27    
Precipitation  
Precipitation 0.00 in - - ()
Sea Level Pressure  
Sea Level Pressure 30.12 in    
Wind  
Wind Speed 6 mph ()    
Max Wind Speed 14 mph    
Max Gust Speed 18 mph    
Visibility 15.0 miles    
Events      
Averages and records for this station are not official NWS values.
T = Trace of Precipitation, MM = Missing Value Source: Averaged Metar Reports

Daily Weather History Graph

Daily Weather History Graph

Search for Another Location

Airport or City:

Trip Planner

Search our weather history database for the weather conditions in past years. The results will help you decide how hot, cold, wet, or windy it might be!

Date:

Astronomy

Oct. 18, 2013 Rise Set
Actual Time 8:06 AM MDT 6:37 PM MDT
Civil Twilight 7:32 AM MDT 7:11 PM MDT
Nautical Twilight 6:54 AM MDT 7:49 PM MDT
Astronomical Twilight 6:16 AM MDT 8:27 PM MDT
Moon 6:26 PM MDT (10/18) 7:47 AM MDT (10/18)
Length of Visible Light 11h 38m
Length of Day
10h 31m
Full, 100% of the Moon is Illuminated
Oct 18
Full
Oct 18
Full
Oct 26
Last Quarter
Nov 3
New
Nov 9
First Quarter

Hourly Weather History & Observations

Time (MDT) Temp. Windchill Dew Point Humidity Pressure Visibility Wind Dir Wind Speed Gust Speed Precip Events Conditions
5:00 AM 24.8 °F 20.5 °F 21.2 °F 86% 30.25 in 15.0 mi NNW 3.5 mph - N/A   Clear
6:00 AM 25 °F - 22 °F 83% 30.23 in 15 mi Calm Calm - -   Clear
6:00 AM 24.8 °F 17.9 °F 21.2 °F 86% 30.23 in 15.0 mi NNW 5.8 mph - N/A   Clear
7:00 AM 24.8 °F 16.1 °F 21.2 °F 86% 30.24 in 15.0 mi NNW 8.1 mph - N/A   Clear
8:00 AM 24.8 °F 16.1 °F 21.2 °F 86% 30.23 in 30.0 mi NNW 8.1 mph - N/A   Partly Cloudy
9:00 AM 26.6 °F - 23.0 °F 86% 30.24 in 30.0 mi West 2.3 mph - N/A   Partly Cloudy
10:00 AM 35.6 °F 31.7 °F 28.4 °F 75% 30.21 in 30.0 mi NW 4.6 mph - N/A   Partly Cloudy
11:00 AM 44.6 °F 41.4 °F 30.2 °F 57% 30.18 in 30.0 mi North 5.8 mph - N/A   Partly Cloudy
12:00 PM 53 °F - 29 °F 27% 30.15 in 28 mi NW 8.1 mph - -   Scattered Clouds
12:00 PM 53.6 °F - 28.4 °F 38% 30.15 in 30.0 mi NNW 6.9 mph - N/A   Partly Cloudy
1:00 PM 57.2 °F - 28.4 °F 33% 30.12 in 30.0 mi NW 6.9 mph - N/A   Partly Cloudy
2:00 PM 60.8 °F - 26.6 °F 27% 30.09 in 30.0 mi WNW 12.7 mph 18.4 mph N/A   Partly Cloudy
3:00 PM 60.8 °F - 28.4 °F 29% 30.06 in 30.0 mi WSW 8.1 mph - N/A   Mostly Cloudy
4:00 PM 60.8 °F - 26.6 °F 27% 30.04 in 30.0 mi WNW 13.8 mph - N/A   Mostly Cloudy
5:00 PM 59.0 °F - 30.2 °F 34% 30.02 in 30.0 mi West 5.8 mph - N/A   Mostly Cloudy
6:00 PM 55 °F - 31 °F 27% 30.02 in 28 mi West 3.5 mph - -   Clear
6:00 PM 55.4 °F - 30.2 °F 38% 30.02 in 30.0 mi WSW 4.6 mph - N/A   Scattered Clouds
7:00 PM 44.6 °F 42.2 °F 26.6 °F 49% 30.04 in 25.0 mi West 4.6 mph - N/A   Partly Cloudy
8:00 PM 46.4 °F 42.9 °F 26.6 °F 46% 30.04 in 15.0 mi NNW 6.9 mph - N/A   Partly Cloudy
9:00 PM 39.2 °F 32.0 °F 26.6 °F 61% 30.06 in 15.0 mi NW 11.5 mph - N/A   Partly Cloudy
9:08 PM 35.6 °F 28.0 °F 24.8 °F 65% 30.06 in 15.0 mi NW 10.4 mph - N/A   Partly Cloudy
10:00 PM 39.2 °F 32.5 °F 26.6 °F 61% 29.92 in 15.0 mi NNW 10.4 mph - N/A   Partly Cloudy